Regional Weather Roundup
Issued by NWS Spokane, WA

Home | Current Version | Previous Version | Text Only | Print | Product List | Glossary On
Versions: 1 2 3 4 5 6 7 8 9 10 11 12 13 14 15 16 17 18 19 20 21 22 23 24 25 26 27 28 29 30 31 32 33 34 35 36 37 38 39 40 41 42 43 44 45 46 47 48 49 50
000
NZUS01 KOTX 261710
RWROTX
EASTERN WASHINGTON/NORTHERN IDAHO ROUNDUP
NATIONAL WEATHER SERVICE, SPOKANE WA
900 AM PST WED NOV 26 2014

Note: "fair" indicated few or no clouds below 12,000 feet with no
significant weather and/or obstructions to visibility.

...NORTHEAST WASHINGTON AND NORTHERN IDAHO PANHANDLE...

CITY           SKY/WX    TMP DP  RH WIND       PRES   REMARKS
SPOKANE INTL   FOG       35  35 100 S7        30.15R VSB 1/8 WCI  29
SPOKANE DOWNTO CLOUDY    37  34  89 CALM      30.17S FOG
COEUR D ALENE  CLOUDY    36  32  87 S5        30.15F
DEER PARK      FOG       33  33 100 CALM      30.17R VSB 3/4
SANDPOINT      CLOUDY    32  32 100 CALM      30.17R FOG

...SOUTHEAST WASHINGTON AND SOUTHERN IDAHO PANHANDLE...

CITY           SKY/WX    TMP DP  RH WIND       PRES   REMARKS
WALLA WALLA    CLOUDY    56  44  64 S9        30.20S
PULLMAN/MOSCOW CLOUDY    49  42  77 SW14      30.20R
LEWISTON       CLOUDY    41  40  96 CALM      30.21R
LOWELL           N/A     38  36  92 CALM      30.28R

...COLUMBIA BASIN...

CITY           SKY/WX    TMP DP  RH WIND       PRES   REMARKS
EPHRATA        FOG       37  37 100 NE6       30.18R VSB 1/2
MOSES LAKE     FOG       37  36  96 CALM      30.19R VSB 1/2
TRI CITIES     FOG       39  39 100 N5        30.21R VSB 1/2
HERMISTON      CLOUDY    58  42  55 SW10      30.19R
PENDLETON      CLOUDY    52  41  66 S7        30.21R

...EAST SLOPES CASCADES...

CITY           SKY/WX    TMP DP  RH WIND       PRES   REMARKS
THE DALLES     SUNNY     53  43  68 E3        30.20R
YAKIMA         FOG       40  38  93 CALM      30.18S VSB 1/4
ELLENSBURG     FOG       37  35  92 CALM      30.16R VSB<1/4
WENATCHEE      FOG       38  36  92 CALM      30.18S VSB 1/4
OMAK           CLOUDY    33  31  92 S6        30.18S FOG     WCI  28

...SOUTHERN BRITISH COLUMBIA...

CITY           SKY/WX    TMP DP  RH WIND       PRES   REMARKS
PENTICTON      CLOUDY    36  34  93 S12       30.14F
CASTLEGAR      LGT SNOW  32  32 100 S2        30.19R FOG
CRANBROOK      LGT SNOW  30  28  93 CALM      30.13S VSB 1

...WESTERN MONTANA...

CITY           SKY/WX    TMP DP  RH WIND       PRES   REMARKS
MISSOULA       MIX PCPN  32  32 100 CALM      30.18R FOG

...NEIGHBORING CITIES...

CITY           SKY/WX    TMP DP  RH WIND       PRES   REMARKS
SEATTLE        PTSUNNY   56  52  86 S10       30.13F
CALGARY        CLOUDY    23  23 100 S8        30.11R FOG     WCI  14



USA.gov is the U.S. government's official web portal to all federal, state and local government web resources and services.